Location: Dunedin
(45.8670°S, 170.5000°E)
Time: 14:00:59
(UTC+13:00)

ISS - Visible Passes

Search period start: 24 January 2019 00:00
Search period end: 03 February 2019 00:00
Orbit: 404 x 410 km, 51.6° (Epoch: 24 January)

Date Brightness Start Highest point End Pass type
(mag) Time Alt. Az. Time Alt. Az. Time Alt. Az.
28 Jan -1.1 05:35:43 10° NNE 05:36:58 12° NE 05:38:13 10° ENE visible
30 Jan -2.1 05:27:32 10° NNW 05:30:21 25° NE 05:33:11 10° E visible
31 Jan -1.5 04:38:10 14° NNE 04:39:07 15° NE 04:41:08 10° E visible
01 Feb -3.4 05:21:29 17° NW 05:23:49 54° NNE 05:27:08 10° ESE visible
02 Feb -2.7 04:32:02 30° NNE 04:32:28 32° NE 04:35:31 10° ESE visible
